User: anonymous   Login
Location: Unspecified
(0.0000°N, 0.0000°E)
Time: 07:54:10
(UTC+00:00)
Language:

Courier 1B - Orbit

View from above orbital plane
View from above orbital plane
View from above satellite
View from above satellite

Ground track
Ground track

The orbit data is extracted from the following two-line orbital elements,

1    58U 60013A   18175.94383850 +.00000096 +00000-0 +12433-4 0  9997
2    58 028.3262 165.1556 0164982 199.2676 160.1572 13.46314067841041
Epoch (UTC): 24 June 2018 22:39:07
Eccentricity: 0.0164982
inclination: 28.3262°
perigee height: 963 km
apogee height: 1209 km
right ascension of ascending node: 165.1556°
argument of perigee: 199.2676°
revolutions per day: 13.46314067
mean anomaly at epoch: 160.1572°
orbit number at epoch: 84104

The dashed part of the orbit path shows where the satellite is in the earth's shadow,  

DLR